FW9783 Weather Reports


time (UTC)temp
C
wind
direction
speed
KPH
gust
KPH
rain 1hr
cm
rain 24hr
cm
rain mn
cm
humidity
%
barometer
mb
20260507144546 7 251 0.0 4.8 0.00 0.00 0.00 89 1028.0
20260507144303 7 242 1.6 4.8 0.00 0.00 0.00 89 1022.5
20260507144044 7 223 0.0 0.0 0.00 0.00 0.00 89 1027.9
20260507143804 7 243 0.0 3.2 0.00 0.00 0.00 89 1022.3
20260507143541 7 261 0.0 0.0 0.00 0.00 0.00 89 1027.9
20260507143039 6 226 0.0 0.0 0.00 0.00 0.00 89 1028.1
20260507142804 6 224 0.0 11.3 0.00 0.00 0.00 89 1022.4
20260507142539 6 280 0.0 11.3 0.00 0.00 0.00 89 1028.1
20260507142306 6 260 3.2 11.3 0.00 0.00 0.00 89 1022.5
20260507142036 6 194 0.0 0.0 0.00 0.00 0.00 89 1028.2
20260507141803 6 255 1.6 9.7 0.00 0.00 0.00 89 1022.6
20260507141532 6 190 0.0 0.0 0.00 0.00 0.00 90 1028.2
20260507141303 6 252 0.0 9.7 0.00 0.00 0.00 90 1022.6
20260507141029 6 233 0.0 0.0 0.00 0.00 0.00 90 1028.2
20260507140803 6 235 0.0 12.9 0.00 0.00 0.00 90 1022.6
20260507140526 6 238 0.0 3.2 0.00 0.00 0.00 90 1028.2
20260507140303 6 239 0.0 12.9 0.00 0.00 0.00 90 1022.5
20260507140023 6 224 0.0 3.2 0.00 0.00 0.00 90 1028.2
20260507135804 6 218 0.0 0.0 0.00 0.00 0.00 90 1022.5
20260507135520 6 281 0.0 0.0 0.00 0.00 0.00 90 1028.3
20260507135306 6 243 0.0 0.0 0.00 0.00 0.00 90 1022.6
20260507135017 6 210 0.0 0.0 0.00 0.00 0.00 90 1028.3
20260507134803 5 230 0.0 0.0 0.00 0.00 0.00 90 1022.9
20260507134514 5 237 0.0 0.0 0.00 0.00 0.00 90 1028.3
20260507134304 5 250 0.0 0.0 0.00 0.00 0.00 90 1022.7
20260507134009 5 239 0.0 0.0 0.00 0.00 0.00 90 1028.4
20260507133804 5 243 0.0 3.2 0.00 0.00 0.00 90 1022.6
20260507133506 5 227 0.0 0.0 0.00 0.00 0.00 90 1028.2
20260507133304 5 230 0.0 3.2 0.00 0.00 0.00 90 1022.8
20260507133004 5 235 0.0 0.0 0.00 0.00 0.00 90 1028.3
20260507132804 5 262 0.0 11.3 0.00 0.00 0.00 90 1022.7
20260507132500 5 244 0.0 0.0 0.00 0.00 0.00 90 1028.2
20260507131956 5 259 0.0 0.0 0.00 0.00 0.00 90 1028.3
20260507131454 5 229 0.0 8.0 0.00 0.00 0.00 90 1028.2
20260507130950 5 277 0.0 0.0 0.00 0.00 0.00 89 1028.2
20260507130447 5 274 0.0 1.6 0.00 0.00 0.00 89 1028.2
20260507130303 5 284 1.6 8.0 0.00 0.00 0.00 89 1022.5
20260507125946 5 236 0.0 0.0 0.00 0.00 0.00 89 1028.4
20260507125804 5 317 0.0 8.0 0.00 0.00 0.00 89 1022.5
20260507125444 5 321 0.0 0.0 0.00 0.00 0.00 89 1028.2
20260507125306 5 321 0.0 8.0 0.00 0.00 0.00 89 1022.5
20260507124941 5 308 0.0 8.0 0.00 0.00 0.00 89 1027.9
20260507124804 5 317 0.0 3.2 0.00 0.00 0.00 89 1022.6
20260507124437 5 293 0.0 0.0 0.00 0.00 0.00 89 1028.1
20260507124304 5 290 0.0 9.7 0.00 0.00 0.00 89 1022.1
20260507123936 5 317 0.0 0.0 0.00 0.00 0.00 89 1028.1
20260507123433 5 258 0.0 8.0 0.00 0.00 0.00 89 1027.9
20260507122929 5 315 0.0 4.8 0.00 0.00 0.00 89 1028.0
20260507122804 5 319 0.0 1.6 0.00 0.00 0.00 89 1022.4
20260507122424 5 276 0.0 0.0 0.00 0.00 0.00 89 1027.9
20260507122307 5 247 0.0 1.6 0.00 0.00 0.00 89 1022.3
20260507121921 5 272 0.0 0.0 0.00 0.00 0.00 89 1028.1
20260507121804 5 241 0.0 0.0 0.00 0.00 0.00 89 1022.3
20260507121416 5 246 0.0 0.0 0.00 0.00 0.00 89 1027.8
20260507121304 5 289 0.0 0.0 0.00 0.00 0.00 89 1022.4
20260507120913 5 279 0.0 0.0 0.00 0.00 0.00 89 1028.2
20260507120409 5 279 0.0 0.0 0.00 0.00 0.00 89 1027.8
20260507120304 5 255 0.0 0.0 0.00 0.00 0.00 89 1022.4
20260507115906 5 248 0.0 0.0 0.00 0.00 0.00 89 1027.8
20260507115804 5 268 0.0 0.0 0.00 0.00 0.00 89 1022.2
20260507115402 5 248 0.0 0.0 0.00 0.00 0.00 89 1027.8
20260507115307 5 243 0.0 0.0 0.00 0.00 0.00 89 1022.3
20260507114857 5 244 0.0 0.0 0.00 0.00 0.00 89 1027.9
20260507114804 5 257 0.0 0.0 0.00 0.00 0.00 89 1022.3
20260507114354 5 278 0.0 0.0 0.00 0.00 0.00 89 1027.8
20260507114304 5 256 0.0 0.0 0.00 0.00 0.00 89 1022.2
20260507113852 5 256 0.0 0.0 0.00 0.00 0.00 89 1028.0
20260507113804 5 266 0.0 1.6 0.00 0.00 0.00 89 1022.2
20260507113349 5 257 0.0 0.0 0.00 0.00 0.00 89 1027.6
20260507113303 5 248 0.0 1.6 0.00 0.00 0.00 89 1022.2
20260507112846 5 259 0.0 1.6 0.00 0.00 0.00 88 1027.6
20260507112343 5 278 0.0 1.6 0.00 0.00 0.00 88 1027.5
20260507112306 5 283 0.0 0.0 0.00 0.00 0.00 88 1022.0
20260507111841 5 266 0.0 0.0 0.00 0.00 0.00 88 1027.9
20260507111803 5 263 0.0 0.0 0.00 0.00 0.00 88 1022.5
20260507111338 5 333 0.0 0.0 0.00 0.00 0.00 88 1027.6
20260507110833 5 293 0.0 0.0 0.00 0.00 0.00 88 1027.9
20260507110330 5 301 0.0 0.0 0.00 0.00 0.00 88 1027.6
20260507110304 5 313 0.0 0.0 0.00 0.00 0.00 88 1022.0
20260507105827 5 308 0.0 0.0 0.00 0.00 0.00 88 1027.6
20260507105804 5 316 0.0 0.0 0.00 0.00 0.00 88 1022.3
20260507105323 5 264 0.0 0.0 0.00 0.00 0.00 88 1027.9
20260507105306 5 248 0.0 0.0 0.00 0.00 0.00 88 1022.1
20260507104820 5 286 0.0 0.0 0.00 0.00 0.00 88 1027.6
20260507104804 5 302 0.0 0.0 0.00 0.00 0.00 88 1021.9
20260507104317 5 273 0.0 0.0 0.00 0.00 0.00 88 1027.8
20260507103813 5 288 0.0 0.0 0.00 0.00 0.00 88 1027.9
20260507103309 5 294 0.0 0.0 0.00 0.00 0.00 88 1027.9
20260507103304 5 294 0.0 0.0 0.00 0.00 0.00 88 1022.3
20260507102806 5 310 0.0 0.0 0.00 0.00 0.00 88 1027.8
20260507102804 5 312 0.0 0.0 0.00 0.00 0.00 88 1022.2
20260507102306 5 289 0.0 0.0 0.00 0.00 0.00 88 1027.8
20260507101759 5 278 0.0 0.0 0.00 0.00 0.00 88 1027.6
20260507101303 5 280 0.0 0.0 0.00 0.00 0.00 88 1022.2
20260507101254 5 284 0.0 0.0 0.00 0.00 0.00 88 1027.8
20260507100804 5 271 0.0 0.0 0.00 0.00 0.00 87 1022.2
20260507100751 5 269 0.0 0.0 0.00 0.00 0.00 87 1027.8
20260507100304 5 268 0.0 0.0 0.00 0.00 0.00 87 1022.4
20260507100249 5 268 0.0 0.0 0.00 0.00 0.00 87 1028.0
20260507095804 5 272 0.0 0.0 0.00 0.00 0.00 87 1022.4
20260507095747 5 272 0.0 0.0 0.00 0.00 0.00 87 1028.0
20260507095306 5 262 0.0 0.0 0.00 0.00 0.00 87 1022.3
20260507095243 5 262 0.0 0.0 0.00 0.00 0.00 87 1027.9
20260507094803 5 242 0.0 0.0 0.00 0.00 0.00 87 1022.4
20260507094740 5 241 0.0 0.0 0.00 0.00 0.00 87 1028.0
20260507094303 5 241 0.0 0.0 0.00 0.00 0.00 87 1022.4
20260507094237 5 241 0.0 0.0 0.00 0.00 0.00 87 1028.0
20260507093803 5 252 0.0 0.0 0.00 0.00 0.00 87 1022.3
20260507093734 5 252 0.0 0.0 0.00 0.00 0.00 87 1028.0
20260507093304 5 268 0.0 0.0 0.00 0.00 0.00 87 1022.5
20260507093233 5 266 0.0 0.0 0.00 0.00 0.00 87 1028.1
20260507092803 5 240 0.0 0.0 0.00 0.00 0.00 87 1022.4
20260507092730 5 240 0.0 0.0 0.00 0.00 0.00 87 1028.0
20260507092306 6 258 0.0 0.0 0.00 0.00 0.00 87 1022.4
20260507092226 6 260 0.0 0.0 0.00 0.00 0.00 87 1028.0
20260507091803 6 262 0.0 0.0 0.00 0.00 0.00 87 1022.4
20260507091722 6 261 0.0 0.0 0.00 0.00 0.00 87 1028.0
20260507091304 6 245 0.0 0.0 0.00 0.00 0.00 87 1022.3
20260507091219 6 245 0.0 0.0 0.00 0.00 0.00 87 1027.9
20260507090804 6 252 0.0 0.0 0.00 0.00 0.00 87 1022.4
20260507090719 6 250 0.0 0.0 0.00 0.00 0.00 87 1028.0
20260507090304 6 256 0.0 0.0 0.00 0.00 0.00 87 1022.1
20260507090216 6 256 0.0 0.0 0.00 0.00 0.00 87 1027.6
20260507085804 6 201 0.0 0.0 0.00 0.00 0.00 86 1022.2
20260507085713 6 197 0.0 0.0 0.00 0.00 0.00 86 1027.8
20260507085306 6 319 0.0 0.0 0.00 0.00 0.00 86 1022.1
20260507085210 6 319 0.0 0.0 0.00 0.00 0.00 86 1027.6
20260507084804 6 260 0.0 0.0 0.00 0.00 0.00 86 1022.2
20260507084707 6 256 0.0 0.0 0.00 0.00 0.00 86 1027.8
20260507084204 6 210 0.0 0.0 0.00 0.00 0.00 86 1027.5
20260507083701 6 202 0.0 0.0 0.00 0.00 0.00 86 1027.5
20260507083304 6 193 0.0 0.0 0.00 0.00 0.00 86 1021.9
20260507083157 6 193 0.0 0.0 0.00 0.00 0.00 86 1027.4
20260507082804 6 202 0.0 0.0 0.00 0.00 0.00 86 1021.9
20260507082654 6 203 0.0 0.0 0.00 0.00 0.00 86 1027.3
20260507082306 6 206 0.0 0.0 0.00 0.00 0.00 86 1021.8
20260507082150 6 189 0.0 0.0 0.00 0.00 0.00 85 1027.4
20260507081647 6 203 0.0 0.0 0.00 0.00 0.00 85 1027.3
20260507081304 6 173 0.0 0.0 0.00 0.00 0.00 85 1021.9
20260507081143 6 169 0.0 0.0 0.00 0.00 0.00 85 1027.5
20260507080804 6 199 0.0 0.0 0.00 0.00 0.00 85 1021.9
20260507080639 6 199 0.0 0.0 0.00 0.00 0.00 85 1027.4
20260507080304 6 184 0.0 0.0 0.00 0.00 0.00 85 1021.9
20260507080136 6 171 0.0 0.0 0.00 0.00 0.00 85 1027.6
20260507075804 6 165 0.0 0.0 0.00 0.00 0.00 84 1022.0
20260507075631 6 144 0.0 0.0 0.00 0.00 0.00 84 1027.6
20260507075307 6 186 0.0 0.0 0.00 0.00 0.00 84 1022.0
20260507075127 6 77 0.0 0.0 0.00 0.00 0.00 84 1027.6
20260507074804 6 161 0.0 0.0 0.00 0.00 0.00 84 1022.2
20260507074624 6 143 0.0 0.0 0.00 0.00 0.00 84 1027.8
20260507074304 6 179 0.0 0.0 0.00 0.00 0.00 84 1022.2
20260507074123 6 180 0.0 0.0 0.00 0.00 0.00 84 1027.8
20260507073804 6 178 0.0 0.0 0.00 0.00 0.00 84 1022.2
20260507073619 6 189 0.0 0.0 0.00 0.00 0.00 83 1027.6
20260507073115 6 117 0.0 0.0 0.00 0.00 0.00 83 1027.4
20260507072804 6 55 0.0 0.0 0.00 0.00 0.00 83 1022.0
20260507072613 6 190 0.0 0.0 0.00 0.00 0.00 83 1027.6
20260507072306 6 167 0.0 0.0 0.00 0.00 0.00 82 1022.5
20260507072109 6 140 0.0 0.0 0.00 0.00 0.00 82 1028.1
20260507071804 6 153 0.0 0.0 0.00 0.00 0.00 82 1022.9
20260507071607 6 126 0.0 0.0 0.00 0.00 0.00 82 1028.4
20260507071103 6 242 0.0 0.0 0.00 0.00 0.00 81 1028.5
20260507070804 6 108 0.0 1.6 0.00 0.00 0.00 80 1023.0
20260507070600 6 25 0.0 0.0 0.00 0.00 0.00 80 1028.7
20260507070303 6 179 0.0 1.6 0.00 0.00 0.00 80 1023.0
20260507070057 7 45 0.0 0.0 0.00 0.00 0.00 79 1028.7
20260507065804 7 105 0.0 0.0 0.00 0.00 0.00 79 1023.1
20260507065554 7 193 0.0 0.0 0.00 0.00 0.00 78 1028.9
20260507065051 7 205 0.0 0.0 0.00 0.00 0.00 78 1029.2
20260507064549 7 110 0.0 0.0 0.00 0.00 0.00 77 1029.2
20260507064047 7 205 0.0 0.0 0.00 0.00 0.00 76 1029.0
20260507063804 7 313 0.0 1.6 0.00 0.00 0.00 75 1023.3
20260507063544 7 347 0.0 0.0 0.00 0.00 0.00 75 1029.0
20260507063303 7 204 0.0 1.6 0.00 0.00 0.00 74 1023.2
20260507063041 7 13 0.0 0.0 0.00 0.00 0.00 74 1029.0
20260507062538 7 204 0.0 0.0 0.00 0.00 0.00 73 1029.3
20260507062306 7 227 0.0 0.0 0.00 0.00 0.00 72 1023.5
20260507062035 7 321 0.0 0.0 0.00 0.00 0.00 72 1029.2
20260507061533 7 104 0.0 0.0 0.00 0.00 0.00 72 1028.8
20260507061304 7 208 0.0 3.2 0.00 0.00 0.00 71 1022.9
20260507061031 7 102 0.0 0.0 0.00 0.00 0.00 71 1028.4
20260507060804 7 83 0.0 8.0 0.00 0.00 0.00 71 1022.9
20260507060529 7 107 0.0 3.2 0.00 0.00 0.00 71 1028.3
20260507060025 7 98 0.0 4.8 0.00 0.00 0.00 70 1028.4
20260507055804 7 100 0.0 4.8 0.00 0.00 0.00 70 1022.6
20260507055520 7 44 0.0 4.8 0.00 0.00 0.00 69 1028.3
20260507055016 7 138 0.0 0.0 0.00 0.00 0.00 69 1028.1
20260507054804 7 35 0.0 0.0 0.00 0.00 0.00 69 1022.5
20260507054512 7 36 0.0 0.0 0.00 0.00 0.00 69 1028.1
20260507054303 7 55 0.0 8.0 0.00 0.00 0.00 69 1022.4
20260507054009 7 97 0.0 0.0 0.00 0.00 0.00 69 1027.9
20260507053804 7 69 0.0 8.0 0.00 0.00 0.00 69 1022.3
20260507053508 7 128 0.0 0.0 0.00 0.00 0.00 69 1027.9
20260507053303 7 37 0.0 8.0 0.00 0.00 0.00 69 1022.4
20260507053006 7 305 0.0 8.0 0.00 0.00 0.00 69 1028.3
20260507052805 7 101 0.0 8.0 0.00 0.00 0.00 69 1022.4
20260507052503 7 139 0.0 4.8 0.00 0.00 0.00 68 1028.2
20260507052306 7 42 0.0 9.7 0.00 0.00 0.00 68 1022.5
20260507051959 7 76 0.0 8.0 0.00 0.00 0.00 68 1028.0
20260507051457 7 343 0.0 0.0 0.00 0.00 0.00 68 1027.9
20260507051304 7 297 0.0 12.9 0.00 0.00 0.00 67 1022.2
20260507050954 7 76 1.6 11.3 0.00 0.00 0.00 68 1027.9
20260507050804 7 344 1.6 12.9 0.00 0.00 0.00 67 1022.2
20260507050450 7 45 1.6 11.3 0.00 0.00 0.00 67 1027.9
20260507050304 7 96 3.2 12.9 0.00 0.00 0.00 67 1022.1
20260507045947 7 57 0.0 9.7 0.00 0.00 0.00 67 1027.5
20260507045804 7 166 1.6 14.5 0.00 0.00 0.00 66 1022.0
20260507045444 8 167 0.0 8.0 0.00 0.00 0.00 66 1027.9
20260507045306 8 54 1.6 14.5 0.00 0.00 0.00 66 1022.4
20260507044941 8 49 4.8 14.5 0.00 0.00 0.00 65 1028.0
20260507044804 8 15 1.6 14.5 0.00 0.00 0.00 65 1022.4
20260507044438 8 68 0.0 4.8 0.00 0.00 0.00 65 1028.1
20260507044303 8 81 0.0 14.5 0.00 0.00 0.00 65 1022.5
20260507043934 8 73 0.0 12.9 0.00 0.00 0.00 65 1028.2
20260507043803 8 62 0.0 14.5 0.00 0.00 0.00 65 1022.3
20260507043430 8 97 0.0 12.9 0.00 0.00 0.00 64 1028.2
20260507043304 8 78 0.0 12.9 0.00 0.00 0.00 64 1022.6
20260507042926 8 62 0.0 9.7 0.00 0.00 0.00 63 1028.7
20260507042424 8 146 0.0 9.7 0.00 0.00 0.00 63 1028.3
20260507042306 8 76 0.0 16.1 0.00 0.00 0.00 62 1022.6
20260507041919 8 347 1.6 9.7 0.00 0.00 0.00 62 1027.8
20260507041804 8 74 1.6 22.5 0.00 0.00 0.00 61 1022.2
20260507041416 8 46 11.3 16.1 0.00 0.00 0.00 60 1027.4
20260507041304 9 39 1.6 22.5 0.00 0.00 0.00 60 1022.2
20260507040914 9 145 0.0 14.5 0.00 0.00 0.00 59 1027.6
20260507040804 9 100 4.8 20.9 0.00 0.00 0.00 59 1022.0
20260507040409 9 72 1.6 8.0 0.00 0.00 0.00 60 1027.4
20260507040304 9 62 1.6 14.5 0.00 0.00 0.00 59 1021.8
20260507035905 9 311 0.0 9.7 0.00 0.00 0.00 59 1027.4
20260507035804 9 33 0.0 19.3 0.00 0.00 0.00 59 1021.9
20260507035401 9 32 3.2 12.9 0.00 0.00 0.00 59 1027.2
20260507035306 9 29 4.8 19.3 0.00 0.00 0.00 59 1021.8
20260507034859 9 50 9.7 17.7 0.00 0.00 0.00 59 1027.1
20260507034803 9 324 1.6 12.9 0.00 0.00 0.00 58 1022.0
20260507034355 10 58 0.0 4.8 0.00 0.00 0.00 58 1027.6
20260507034303 9 19 3.2 11.3 0.00 0.00 0.00 58 1022.1
20260507033853 10 37 3.2 4.8 0.00 0.00 0.00 58 1027.4
20260507033803 9 253 0.0 16.1 0.00 0.00 0.00 58 1021.9
20260507033351 10 158 0.0 8.0 0.00 0.00 0.00 58 1027.5
20260507033304 9 79 0.0 19.3 0.00 0.00 0.00 58 1021.8
20260507032848 10 176 3.2 8.0 0.00 0.00 0.00 58 1027.4
20260507032804 10 56 1.6 19.3 0.00 0.00 0.00 58 1021.9
20260507032345 10 350 8.0 17.7 0.00 0.00 0.00 58 1027.3
20260507032305 10 33 0.0 12.9 0.00 0.00 0.00 58 1021.7
20260507031841 10 52 4.8 12.9 0.00 0.00 0.00 57 1027.1
20260507031804 10 93 0.0 11.3 0.00 0.00 0.00 58 1021.6
20260507031338 10 93 0.0 8.0 0.00 0.00 0.00 57 1027.2
20260507031304 10 92 0.0 16.1 0.00 0.00 0.00 57 1021.4
20260507030834 10 322 0.0 1.6 0.00 0.00 0.00 57 1027.0
20260507030804 10 93 0.0 16.1 0.00 0.00 0.00 57 1021.3
20260507030332 10 92 4.8 16.1 0.00 0.00 0.00 55 1026.8
20260507030303 10 82 0.0 16.1 0.00 0.00 0.00 56 1021.1
20260507025828 10 336 0.0 8.0 0.00 0.00 0.00 55 1026.6
20260507025804 10 121 1.6 16.1 0.00 0.00 0.00 55 1021.5
20260507025326 11 56 4.8 14.5 0.00 0.00 0.00 55 1026.9
20260507024824 11 80 4.8 11.3 0.00 0.00 0.00 55 1026.6
20260507024804 11 157 0.0 24.1 0.00 0.00 0.00 55 1021.1
20260507024321 11 14 0.0 17.7 0.00 0.00 0.00 55 1026.6
20260507024304 11 31 1.6 24.1 0.00 0.00 0.00 55 1021.1
20260507023816 11 58 1.6 9.7 0.00 0.00 0.00 54 1026.3
20260507023804 11 59 3.2 19.3 0.00 0.00 0.00 54 1020.9
20260507023313 11 48 1.6 16.1 0.00 0.00 0.00 54 1026.3
20260507023304 11 52 3.2 20.9 0.00 0.00 0.00 54 1020.6
20260507022810 11 168 0.0 4.8 0.00 0.00 0.00 53 1026.0
20260507022804 11 8 0.0 37.0 0.00 0.00 0.00 53 1020.4
20260507022307 11 68 4.8 20.9 0.00 0.00 0.00 52 1025.9
20260507021804 12 0 1.6 37.0 0.00 0.00 0.00 52 1020.2
20260507021304 12 105 3.2 12.9 0.00 0.00 0.00 51 1020.4
20260507021259 12 50 3.2 16.1 0.00 0.00 0.00 51 1025.5
20260507020804 12 49 0.0 11.3 0.00 0.00 0.00 51 1020.2
20260507020757 12 254 0.0 12.9 0.00 0.00 0.00 51 1025.4
20260507020304 12 37 1.6 19.3 0.00 0.00 0.00 51 1019.9
20260507020253 12 141 0.0 9.7 0.00 0.00 0.00 51 1025.4
20260507015804 12 122 0.0 19.3 0.00 0.00 0.00 51 1019.8
20260507015751 12 121 0.0 4.8 0.00 0.00 0.00 51 1025.1
20260507015306 12 66 3.2 20.9 0.00 0.00 0.00 51 1019.6
20260507015248 12 66 11.3 17.7 0.00 0.00 0.00 51 1024.9
20260507014804 12 42 0.0 20.9 0.00 0.00 0.00 52 1019.2
20260507014745 12 21 1.6 3.2 0.00 0.00 0.00 52 1024.4
20260507014304 12 46 1.6 16.1 0.00 0.00 0.00 52 1019.1
20260507014241 12 46 0.0 4.8 0.00 0.00 0.00 52 1024.3
20260507013804 12 48 1.6 16.1 0.00 0.00 0.00 52 1019.0
20260507013738 12 64 0.0 8.0 0.00 0.00 0.00 52 1024.2
20260507013304 12 286 1.6 12.9 0.00 0.00 0.00 52 1018.9
20260507013235 12 271 0.0 4.8 0.00 0.00 0.00 52 1024.1
20260507012732 13 223 0.0 8.0 0.00 0.00 0.00 51 1023.8
20260507012306 13 97 0.0 11.3 0.00 0.00 0.00 51 1018.5
20260507012228 13 113 0.0 1.6 0.00 0.00 0.00 51 1023.6
20260507011803 13 89 3.2 11.3 0.00 0.00 0.00 51 1018.4
20260507011726 13 93 3.2 11.3 0.00 0.00 0.00 51 1023.5
20260507011304 13 62 0.0 11.3 0.00 0.00 0.00 51 1018.4
20260507011222 13 51 0.0 1.6 0.00 0.00 0.00 51 1023.5
20260507010721 13 72 3.2 11.3 0.00 0.00 0.00 50 1023.3
20260507010304 13 120 0.0 11.3 0.00 0.00 0.00 50 1018.0
20260507010218 13 57 0.0 8.0 0.00 0.00 0.00 50 1023.1
20260507005804 13 60 0.0 14.5 0.00 0.00 0.00 50 1017.7
20260507005715 13 72 0.0 4.8 0.00 0.00 0.00 50 1022.7
20260507005305 13 82 3.2 14.5 0.00 0.00 0.00 49 1017.5
20260507005211 13 79 3.2 11.3 0.00 0.00 0.00 49 1022.4
20260507004804 13 92 0.0 14.5 0.00 0.00 0.00 49 1017.5
20260507004708 13 98 0.0 14.5 0.00 0.00 0.00 49 1022.5
20260507004206 13 23 0.0 0.0 0.00 0.00 0.00 50 1022.5
20260507003804 13 102 1.6 20.9 0.00 0.00 0.00 49 1017.5
20260507003702 13 107 0.0 9.7 0.00 0.00 0.00 49 1022.5
20260507003157 14 63 0.0 0.0 0.00 0.00 0.00 48 1022.4
20260507002803 14 147 0.0 16.1 0.00 0.00 0.00 48 1017.4
20260507002653 14 160 0.0 4.8 0.00 0.00 0.00 48 1022.4
20260507002306 14 69 0.0 12.9 0.00 0.00 0.00 48 1017.4
20260507002149 14 74 0.0 8.0 0.00 0.00 0.00 48 1022.1
20260507001647 15 74 4.8 12.9 0.00 0.00 0.00 47 1022.4
20260507001304 14 126 0.0 8.0 0.00 0.00 0.00 48 1017.3
20260507001144 15 145 0.0 0.0 0.00 0.00 0.00 48 1022.1
20260507000803 14 173 0.0 8.0 0.00 0.00 0.00 47 1017.2
20260507000640 15 124 0.0 4.8 0.00 0.00 0.00 48 1022.2
20260507000306 15 128 0.0 24.1 0.00 0.00 0.00 47 1016.8
20260507000135 15 48 1.6 4.8 0.00 0.00 0.00 47 1021.7
20260506235804 15 64 0.0 24.1 0.00 0.00 0.00 47 1016.7
20260506235633 15 50 0.0 0.0 0.00 0.00 0.00 47 1021.6
20260506235133 15 232 8.0 24.1 0.00 0.00 0.00 46 1021.4
20260506234804 15 116 1.6 22.5 0.00 0.00 0.00 47 1016.8
20260506234631 15 118 4.8 17.7 0.00 0.00 0.00 46 1021.5
20260506234304 15 78 0.0 29.0 0.00 0.00 0.00 46 1016.7
20260506234128 15 127 0.0 12.9 0.00 0.00 0.00 46 1021.6
20260506233803 15 197 0.0 29.0 0.00 0.00 0.00 46 1016.7
20260506233625 15 190 0.0 0.0 0.00 0.00 0.00 47 1021.5
20260506233303 15 94 8.0 32.2 0.00 0.00 0.00 48 1016.8
20260506233122 15 66 16.1 29.0 0.00 0.00 0.00 47 1021.4
20260506232803 15 228 0.0 32.2 0.00 0.00 0.00 47 1016.8
20260506232618 15 55 0.0 0.0 0.00 0.00 0.00 47 1021.8
20260506232306 15 167 1.6 32.2 0.00 0.00 0.00 46 1016.8
20260506232113 15 303 1.6 9.7 0.00 0.00 0.00 47 1021.5
20260506231803 15 117 6.4 25.7 0.00 0.00 0.00 47 1016.6
20260506231611 15 108 12.9 24.1 0.00 0.00 0.00 46 1021.6
20260506231303 15 147 0.0 8.0 0.00 0.00 0.00 47 1016.5
20260506231109 15 98 0.0 8.0 0.00 0.00 0.00 47 1021.6
20260506230803 15 92 1.6 8.0 0.00 0.00 0.00 46 1016.8
20260506230605 15 272 0.0 0.0 0.00 0.00 0.00 46 1021.7
20260506230304 15 90 0.0 11.3 0.00 0.00 0.00 46 1016.7
20260506225804 15 192 0.0 14.5 0.00 0.00 0.00 46 1016.8
20260506225559 15 30 0.0 4.8 0.00 0.00 0.00 47 1021.7
20260506225305 15 72 1.6 14.5 0.00 0.00 0.00 47 1016.9
20260506225055 15 26 1.6 8.0 0.00 0.00 0.00 47 1021.5
20260506224553 15 115 0.0 1.6 0.00 0.00 0.00 47 1021.6
20260506224304 15 204 0.0 22.5 0.00 0.00 0.00 47 1016.7
20260506224049 15 121 0.0 0.0 0.00 0.00 0.00 48 1021.8
20260506223804 15 70 0.0 22.5 0.00 0.00 0.00 48 1016.8
20260506223545 15 27 0.0 0.0 0.00 0.00 0.00 48 1021.6
20260506223303 15 64 1.6 29.0 0.00 0.00 0.00 49 1016.9
20260506223042 15 85 0.0 1.6 0.00 0.00 0.00 49 1021.8
20260506222804 14 69 0.0 29.0 0.00 0.00 0.00 49 1016.8
20260506222538 14 198 0.0 29.0 0.00 0.00 0.00 49 1022.1
20260506222035 15 39 4.8 14.5 0.00 0.00 0.00 48 1021.9
20260506221804 15 26 0.0 19.3 0.00 0.00 0.00 47 1016.9
20260506221532 15 198 0.0 17.7 0.00 0.00 0.00 47 1021.8
20260506221304 15 103 1.6 16.1 0.00 0.00 0.00 47 1017.0
20260506221030 15 61 0.0 9.7 0.00 0.00 0.00 46 1021.8
20260506220803 15 57 0.0 40.2 0.00 0.00 0.00 48 1017.0
20260506220526 15 84 0.0 1.6 0.00 0.00 0.00 47 1021.9
20260506220304 15 188 0.0 40.2 0.00 0.00 0.00 49 1017.2
20260506220021 15 128 1.6 4.8 0.00 0.00 0.00 49 1022.1
20260506215804 15 178 1.6 40.2 0.00 0.00 0.00 49 1017.2
20260506215519 15 144 0.0 16.1 0.00 0.00 0.00 49 1022.1
20260506215014 15 73 0.0 12.9 0.00 0.00 0.00 48 1021.9
20260506214803 15 83 1.6 32.2 0.00 0.00 0.00 47 1017.0
20260506214512 15 62 4.8 14.5 0.00 0.00 0.00 47 1022.2
20260506214304 15 127 0.0 33.8 0.00 0.00 0.00 47 1017.3
20260506214009 15 18 0.0 11.3 0.00 0.00 0.00 48 1022.3
20260506213507 15 187 0.0 4.8 0.00 0.00 0.00 48 1022.2
20260506213304 15 15 1.6 33.8 0.00 0.00 0.00 47 1017.2
20260506213004 15 202 0.0 1.6 0.00 0.00 0.00 48 1022.2
20260506212803 15 112 0.0 32.2 0.00 0.00 0.00 48 1017.2
20260506212500 15 91 0.0 3.2 0.00 0.00 0.00 48 1022.2
20260506211954 16 36 1.6 4.8 0.00 0.00 0.00 46 1022.1
20260506211803 16 123 0.0 32.2 0.00 0.00 0.00 47 1017.3
20260506211451 15 70 0.0 0.0 0.00 0.00 0.00 49 1022.1
20260506211303 15 101 0.0 24.1 0.00 0.00 0.00 48 1017.3
20260506210948 15 125 0.0 3.2 0.00 0.00 0.00 47 1022.4
20260506210803 15 47 1.6 32.2 0.00 0.00 0.00 48 1017.3
20260506210444 15 66 0.0 20.9 0.00 0.00 0.00 48 1022.4
20260506210304 15 236 3.2 32.2 0.00 0.00 0.00 47 1017.2
20260506205942 15 157 0.0 0.0 0.00 0.00 0.00 47 1022.1
20260506205438 15 60 0.0 20.9 0.00 0.00 0.00 48 1021.9
20260506205306 15 20 3.2 20.9 0.00 0.00 0.00 48 1017.2
20260506204934 15 168 0.0 17.7 0.00 0.00 0.00 48 1022.3
20260506204804 15 116 0.0 9.7 0.00 0.00 0.00 48 1017.3
20260506204432 15 77 0.0 0.0 0.00 0.00 0.00 47 1022.2
20260506204304 15 151 0.0 24.1 0.00 0.00 0.00 48 1017.4
20260506203929 15 127 1.6 3.2 0.00 0.00 0.00 46 1022.5
20260506203804 15 272 1.6 24.1 0.00 0.00 0.00 46 1017.2
20260506203426 16 80 0.0 0.0 0.00 0.00 0.00 45 1022.3
20260506203304 16 171 0.0 29.0 0.00 0.00 0.00 46 1017.3
20260506202923 16 83 1.6 9.7 0.00 0.00 0.00 46 1022.4
20260506202804 15 157 0.0 29.0 0.00 0.00 0.00 47 1017.5
20260506202420 16 129 4.8 29.0 0.00 0.00 0.00 46 1022.3
20260506202306 16 136 0.0 20.9 0.00 0.00 0.00 46 1017.5
20260506201917 16 225 1.6 12.9 0.00 0.00 0.00 46 1022.4
20260506201803 15 28 0.0 25.7 0.00 0.00 0.00 46 1017.4
20260506201414 15 169 0.0 20.9 0.00 0.00 0.00 47 1022.2
20260506201304 15 239 0.0 32.2 0.00 0.00 0.00 46 1017.3
20260506200911 15 219 0.0 0.0 0.00 0.00 0.00 47 1022.3
20260506200407 15 154 0.0 32.2 0.00 0.00 0.00 48 1022.1
20260506200304 15 183 4.8 24.1 0.00 0.00 0.00 47 1017.4
20260506195903 16 97 0.0 11.3 0.00 0.00 0.00 48 1022.4
20260506195806 16 54 0.0 3.2 0.00 0.00 0.00 47 1017.1
20260506195401 15 246 0.0 1.6 0.00 0.00 0.00 48 1022.5
20260506195306 15 100 0.0 4.8 0.00 0.00 0.00 50 1017.3
20260506194857 15 116 0.0 3.2 0.00 0.00 0.00 49 1022.4
20260506194804 15 133 0.0 11.3 0.00 0.00 0.00 49 1017.3
20260506194354 15 56 0.0 1.6 0.00 0.00 0.00 49 1022.3
20260506194303 15 202 0.0 14.5 0.00 0.00 0.00 49 1017.4
20260506193852 15 92 0.0 11.3 0.00 0.00 0.00 50 1022.6
20260506193348 15 76 4.8 14.5 0.00 0.00 0.00 51 1022.7
20260506193315 14 165 0.0 4.8 0.00 0.00 0.00 51 1017.6
20260506192844 14 258 0.0 3.2 0.00 0.00 0.00 51 1022.6
20260506192803 14 82 0.0 16.1 0.00 0.00 0.00 51 1017.6
20260506192341 13 243 0.0 0.0 0.00 0.00 0.00 51 1022.7
20260506192305 13 127 0.0 16.1 0.00 0.00 0.00 52 1017.7
20260506191838 13 51 0.0 0.0 0.00 0.00 0.00 53 1022.8
20260506191823 13 93 0.0 16.1 0.00 0.00 0.00 52 1017.9
20260506191334 13 66 0.0 0.0 0.00 0.00 0.00 54 1022.6
20260506191304 13 229 0.0 16.1 0.00 0.00 0.00 53 1018.0
20260506190832 13 133 0.0 0.0 0.00 0.00 0.00 52 1022.7
20260506190804 13 106 0.0 4.8 0.00 0.00 0.00 52 1017.9
20260506190328 14 65 0.0 4.8 0.00 0.00 0.00 52 1022.8
20260506190304 13 109 0.0 20.9 0.00 0.00 0.00 53 1017.9
20260506185825 13 67 0.0 0.0 0.00 0.00 0.00 53 1023.1
20260506185804 13 90 0.0 22.5 0.00 0.00 0.00 52 1018.0
20260506185322 13 206 0.0 20.9 0.00 0.00 0.00 53 1022.8
20260506185306 13 183 0.0 22.5 0.00 0.00 0.00 53 1017.9
20260506184819 13 56 0.0 0.0 0.00 0.00 0.00 54 1023.2
20260506184804 12 126 0.0 12.9 0.00 0.00 0.00 55 1018.1
20260506184316 12 92 0.0 3.2 0.00 0.00 0.00 54 1023.2
20260506184304 13 92 0.0 12.9 0.00 0.00 0.00 54 1018.2
20260506183814 13 230 0.0 0.0 0.00 0.00 0.00 54 1023.3
20260506183803 13 57 0.0 4.8 0.00 0.00 0.00 54 1018.1
20260506183309 13 107 0.0 4.8 0.00 0.00 0.00 54 1023.1
20260506183303 13 219 0.0 9.7 0.00 0.00 0.00 55 1018.0
20260506182806 12 113 0.0 0.0 0.00 0.00 0.00 55 1023.2
20260506182803 12 220 0.0 11.3 0.00 0.00 0.00 54 1018.2
20260506182306 12 89 0.0 0.0 0.00 0.00 0.00 55 1023.5
20260506181803 12 159 0.0 3.2 0.00 0.00 0.00 55 1018.3
20260506181801 12 148 1.6 4.8 0.00 0.00 0.00 56 1023.3
20260506181304 12 211 0.0 9.7 0.00 0.00 0.00 55 1018.6
20260506181259 12 128 0.0 1.6 0.00 0.00 0.00 55 1023.7
20260506180803 12 135 0.0 9.7 0.00 0.00 0.00 56 1018.4
20260506180755 12 193 0.0 3.2 0.00 0.00 0.00 56 1023.6
20260506180303 13 155 1.6 9.7 0.00 0.00 0.00 56 1018.8
20260506180251 13 223 0.0 0.0 0.00 0.00 0.00 54 1023.6
20260506175804 12 128 0.0 19.3 0.00 0.00 0.00 55 1018.4
20260506175748 12 128 0.0 0.0 0.00 0.00 0.00 55 1023.5
20260506175306 12 171 0.0 19.3 0.00 0.00 0.00 56 1018.8
20260506175245 12 183 0.0 0.0 0.00 0.00 0.00 56 1024.0
20260506174804 12 162 1.6 19.3 0.00 0.00 0.00 56 1018.4
20260506174742 12 164 0.0 17.7 0.00 0.00 0.00 56 1023.5
20260506174304 11 183 0.0 8.0 0.00 0.00 0.00 58 1018.5
20260506174239 11 183 0.0 0.0 0.00 0.00 0.00 58 1023.6
20260506173804 11 75 0.0 8.0 0.00 0.00 0.00 58 1018.9
20260506173737 11 76 0.0 0.0 0.00 0.00 0.00 58 1024.1
20260506173304 12 111 1.6 8.0 0.00 0.00 0.00 58 1018.8
20260506173233 12 115 1.6 8.0 0.00 0.00 0.00 58 1023.8
20260506172730 11 5 0.0 0.0 0.00 0.00 0.00 58 1024.2
20260506172306 11 183 0.0 1.6 0.00 0.00 0.00 58 1018.8
20260506172227 11 184 0.0 1.6 0.00 0.00 0.00 58 1024.0
20260506171804 11 214 0.0 0.0 0.00 0.00 0.00 57 1018.8
20260506171725 11 216 0.0 0.0 0.00 0.00 0.00 57 1024.0
20260506171304 11 172 0.0 0.0 0.00 0.00 0.00 59 1018.8
20260506171222 11 172 0.0 0.0 0.00 0.00 0.00 59 1024.0
20260506170804 11 94 0.0 4.8 0.00 0.00 0.00 60 1018.5
20260506170719 11 82 0.0 0.0 0.00 0.00 0.00 60 1023.6
20260506170303 11 118 0.0 4.8 0.00 0.00 0.00 58 1018.7
20260506170216 11 117 0.0 0.0 0.00 0.00 0.00 58 1023.8
20260506165803 11 223 0.0 4.8 0.00 0.00 0.00 59 1018.4
20260506165714 11 223 0.0 4.8 0.00 0.00 0.00 59 1023.5
20260506165211 11 181 0.0 0.0 0.00 0.00 0.00 59 1023.7
20260506164708 10 171 0.0 0.0 0.00 0.00 0.00 60 1023.8
20260506164304 10 154 0.0 4.8 0.00 0.00 0.00 60 1018.7
20260506164205 10 153 0.0 0.0 0.00 0.00 0.00 60 1023.8
20260506163804 10 211 0.0 4.8 0.00 0.00 0.00 62 1018.7
20260506163701 10 211 0.0 4.8 0.00 0.00 0.00 62 1023.8
20260506163304 10 50 0.0 4.8 0.00 0.00 0.00 62 1018.8
20260506163156 10 49 0.0 0.0 0.00 0.00 0.00 62 1024.0
20260506162804 10 35 0.0 8.0 0.00 0.00 0.00 62 1018.6
20260506162653 10 27 0.0 0.0 0.00 0.00 0.00 62 1023.7
20260506162306 10 208 0.0 8.0 0.00 0.00 0.00 62 1018.7
20260506162150 10 208 0.0 0.0 0.00 0.00 0.00 62 1023.8
20260506161804 10 343 0.0 3.2 0.00 0.00 0.00 61 1018.8
20260506161647 10 169 0.0 3.2 0.00 0.00 0.00 61 1023.7
20260506161304 10 167 0.0 0.0 0.00 0.00 0.00 62 1018.3
20260506161144 10 214 0.0 0.0 0.00 0.00 0.00 62 1023.7
20260506160804 10 224 0.0 0.0 0.00 0.00 0.00 61 1018.4
20260506160642 10 193 0.0 0.0 0.00 0.00 0.00 62 1023.7
20260506160304 10 128 0.0 0.0 0.00 0.00 0.00 62 1018.2
20260506160139 10 89 0.0 0.0 0.00 0.00 0.00 62 1023.1
20260506155804 10 139 0.0 0.0 0.00 0.00 0.00 62 1018.3
20260506155637 10 174 0.0 0.0 0.00 0.00 0.00 63 1023.5
20260506155133 8 186 0.0 0.0 0.00 0.00 0.00 65 1023.2
20260506154803 9 175 0.0 4.8 0.00 0.00 0.00 63 1018.2
20260506154303 9 196 0.0 4.8 0.00 0.00 0.00 64 1018.1
20260506153304 8 74 0.0 14.5 0.00 0.00 0.00 65 1018.3
20260506153230 8 74 0.0 0.0 0.00 0.00 0.00 65 1023.4
20260506152727 8 153 0.0 0.0 0.00 0.00 0.00 66 1023.2
20260506152305 8 48 0.0 14.5 0.00 0.00 0.00 66 1018.0
20260506152224 8 48 0.0 14.5 0.00 0.00 0.00 66 1023.1
20260506151803 8 220 0.0 0.0 0.00 0.00 0.00 66 1018.1
20260506151724 8 220 0.0 0.0 0.00 0.00 0.00 66 1023.2
20260506151304 8 181 0.0 0.0 0.00 0.00 0.00 66 1018.2
20260506151219 8 181 0.0 0.0 0.00 0.00 0.00 66 1023.3
20260506150716 8 59 0.0 0.0 0.00 0.00 0.00 66 1023.2
20260506150304 8 131 0.0 4.8 0.00 0.00 0.00 66 1017.9
20260506150213 8 131 0.0 0.0 0.00 0.00 0.00 66 1023.0
20260506145804 8 107 0.0 4.8 0.00 0.00 0.00 67 1017.9
20260506145710 8 105 0.0 0.0 0.00 0.00 0.00 67 1023.0
20260506145305 7 146 0.0 4.8 0.00 0.00 0.00 67 1018.0
20260506145206 7 149 0.0 0.0 0.00 0.00 0.00 67 1023.1
20260506144804 7 116 0.0 3.2 0.00 0.00 0.00 67 1017.9